AirNav   Air Wisconsin pilot careers
 
 1630 users online  

K63 Council Grove Municipal Airport
Council Grove, Kansas, USA


FAA INFORMATION EFFECTIVE 04 JANUARY 2018

Location

FAA Identifier: K63
Lat/Long: 38-40-35.3000N / 096-34-21.9000W
38-40.588333N / 096-34.365000W
38.6764722 / -96.5727500
(estimated)
Elevation: 1409 ft. / 429.5 m (surveyed)
Variation: 06E (1985)
From city: 3 miles NW of COUNCIL GROVE, KS
Time zone: UTC -6 (UTC -5 during Daylight Saving Time)
Zip code: 66846

Airport Operations

Airport use: Open to the public
Activation date: 10/1947
Control tower: no
ARTCC: KANSAS CITY CENTER
FSS: WICHITA FLIGHT SERVICE STATION
NOTAMs facility: ICT (NOTAM-D service available)
Attendance: UNATNDD
Wind indicator: no
Segmented circle: no

Airport Communications

CTAF: 122.9

Nearby radio navigation aids

VOR radial/distance  VOR name  Freq  Var
FRIr137/(22.2)FORT RILEY VOR109.4006E
MHKr167/28.5MANHATTAN VOR/DME110.2004E
EMPr311/30.8EMPORIA VORTAC112.8008E

 
NDB name  Hdg/Dist  Freq  Var  ID
HERINGTON089/11.240706EHRU .... .-. ..-
CAVALRY148/23.431406ECVY -.-. ...- -.--

Airport Services

Parking: tiedowns
Airframe service: NONE
Powerplant service: NONE
Bottled oxygen: NONE
Bulk oxygen: NONE

Runway Information

Runway 4/22

Dimensions: 1845 x 120 ft. / 562 x 37 m
Surface: turf, in good condition
RY 04/22 VERY SOFT & SLICK DURING PERIODS OF INCLEMENT WEATHER.
Runway edge markings: RWY 22 THLD MARKED WITH ORANGE PAINTED BARRELS.
RUNWAY 4  RUNWAY 22
Latitude: 38-40.478833N38-40.689167N
Longitude: 096-34.490500W096-34.210333W
Traffic pattern: leftleft
Obstructions: 10 ft. trees, 185 ft. from runway, 40 ft. right of centerline, 18:1 slope to clear
RY 04 4FT FENCE ACROSS RY CTRL WITH SMALL TREES LEFT AND RIGHT.
10 ft. pline, marked, 350 ft. from runway, 35:1 slope to clear

Runway 12/30

Dimensions: 1690 x 75 ft. / 515 x 23 m
Surface: turf, in good condition
RY 12/30 VERY SOFT & SLICK DURING PERIODS OF INCLEMENT WEATHER.
Runway edge markings: RY 30 THLD MKD WITH ORANGE PAINTED BARRELS.
RUNWAY 12  RUNWAY 30
Latitude: 38-40.660000N38-40.526667N
Longitude: 096-34.537167W096-34.225167W
Traffic pattern: leftleft
Obstructions: 14 ft. trees, 12 ft. from runway
4 FT FENCE ACROSS RY CTRL WITH SMALL TREES LEFT AND RIGHT.
21 ft. trees, 513 ft. from runway, 24:1 slope to clear

Airport Ownership and Management from official FAA records

Ownership: Publicly-owned
Owner: CITY OF COUNCIL GROVE
205 UNION ST.
COUNCIL GROVE, KS 66846
Phone 620-767-5417
Manager: LARRY JOHNSON
205 UNION ST.
COUNCIL GROVE, KS 66846
Phone 620-767-5417

Airport Operational Statistics

Aircraft operations: avg 33/month *
75% transient general aviation
25% military
* for 12-month period ending 28 September 2016

Additional Remarks

RDO-CTLD MODEL ACFT ACTVTY ON ARPT WKENDS EVES & HOLS.

Instrument Procedures

There are no published instrument procedures at K63.

Some nearby airports with instrument procedures:

KHRU - Herington Regional Airport (11 nm W)
KFRI - Marshall Army Airfield (24 nm N)
3JC - Freeman Field Airport (25 nm NW)
KEMP - Emporia Municipal Airport (27 nm SE)
KMHK - Manhattan Regional Airport (28 nm N)
 
Loc | Ops | Rwys | IFR | FBO | Links
Com | Nav | Svcs | Stats | Notes

Kansas City Aviation Department
 
Area around K63 (Council Grove Municipal Airport)
 
Road maps at: MapQuest Bing Google
 
Aerial photo
WARNING: Photo may not be current or correct
Aerial photo of K63 (Council Grove Municipal Airport)
Photo by Eric Jaderborg
Photo taken 02-Oct-2011
looking northeast.

Do you have a better or more recent aerial photo of Council Grove Municipal Airport that you would like to share? If so, please send us your photo.

 
Sectional chart

 
Airport distance calculator
Flying to Council Grove Municipal Airport? Find the distance to fly.

From to K63

Sunrise and sunset
Times for 22-Jan-2018
 Local
(UTC-6)
 Zulu
(UTC)
Morning civil twilight07:1213:12
Sunrise07:4113:41
Sunset17:3523:35
Evening civil twilight18:0400:04

Current date and time
Zulu (UTC)  22-Jan-2018 16:19:34
Local (UTC-6)  22-Jan-2018 10:19:34
 
METAR
KFRI 
23nm NW 
221556Z 30006KT 4SM -SN OVC009 01/01 A2952 RMK AO2A CIG 007V009 SLPNO
KEMP 
27nm SE 
221553Z AUTO 24009KT 10SM OVC008 02/01 A2949 RMK AO2 RAB02E20UPB20E28 CIG 006V012 SLP992 P0000 T00220011
KMHK 
28nm N 
221552Z VRB04KT 1/2SM SN FG OVC005 01/00 A2950 RMK AO2 SLP996 P0009 T00110000
KFOE 
46nm E 
221553Z 22009KT 2SM BR OVC006 03/02 A2945 RMK AO2 CIG 004V008 SLP976 T00280022
TAF
KFRI 
23nm NW 
221215Z 2212/2314 29009KT 9999 OVC006 620809 510509 QNH2945INS BECMG 2214/2215 32015G20KT 6000 -RASN SCT015 OVC025 620809 QNH2948INS BECMG 2218/2219 31025G35KT 3200 -SN OVC040 610409 QNH2950INS BECMG 2300/2301 32010G15KT 9999 NSW BKN020 BKN040 620209 540005 QNH2952INS BECMG 2306/2307 33012KT 9999 SCT025 540005 QNH2968INS BECMG 2312/2313 30009KT 9999 SCT200 QNH2999INS TX04/2212Z TNM02/2308Z
KMHK 
28nm N 
221130Z 2212/2312 29007KT 4SM BR VCSH OVC004 FM221500 29011KT 3SM -RASN OVC008 FM221800 30015G23KT 5SM -RASN OVC015 FM222000 30021G29KT 3SM -SN OVC015 FM230000 32015G23KT P6SM OVC020 FM230600 32013G25KT P6SM BKN035
NOTAMs
Click for the latest NOTAMs
NOTAMs are issued by the DoD/FAA and will open in a separate window not controlled by AirNav.

 

 
 

Would you like to see your business listed on this page?

 If your business provides an interesting product or service to pilots, flight crews, aircraft, or users of the Council Grove Municipal Airport, you should consider listing it here.  To start the listing process, click on the button below
 
Add a business
 

Other Pages about Council Grove Municipal Airport

Update a link
 
Copyright © AirNav, LLC. All rights reserved. Privacy Policy  Contact